www.pogodaiklimat.ru

Погода и климат >> Архив погоды >> Антарктида >> Base Marambio


ПОГОДА в Base Marambio

  • Прогноз погоды в Base Marambio
  • Монитор погоды в Base Marambio
  • Климат города

АРХИВ ПОГОДЫ в Base Marambio

Время (UTC), дата Ветер
(напр.,м/с)
 
Видим.   Явления Облачность Т
(С)
Тd
(С)
f
(%)
Тe
(С)
Тes
(С)
Комфортность P
(гПа)
Po
(гПа)
Тmin
(С)
Tmax
(С)
R
(мм)
R24
(мм)
S
(см)
03 14.10 ЮЗ 23 100 м сильная метель 10/10 120 м
[St]
-14.5 -16.2 87 -31 -31 опасность
обморожения
957.4 933.2
06 14.10 ЮЗ 25 100 м сильная метель 5/5 150 м
[St]
-14.4 -16.1 87 -31 -31 опасность
обморожения
956.7 932.2
09 14.10 ЮЗ 27 200 м сильная метель 5/0
[Ac As Ci fib]
-13.9 -15.5 88 -31 -31 опасность
обморожения
957.2 932.6
12 14.10 ЮЗ 29 200 м сильная метель 5/0
[Cs]
-12.7 -14.2 89 -29 -29 958.6 934.0 -14.7 -12.5
15 14.10 ЮЗ 31 200 м сильная метель 5/0
[Cs]
-12.0 -13.4 89 -29 -29 956.3 931.8
18 14.10 ЮЗ 28 200 м сильная метель 5/0
[Cs]
-11.4 -12.8 89 -27 -27 958.1 933.6
21 14.10 ЮЗ 29 200 м сильная метель 5/0
[Cs]
-11.3 -12.7 89 -27 -27 958.8 934.2
00 15.10 ЮЗ 30 200 м сильная метель ясно -11.4 -12.8 89 -28 -28 959.7 935.2 -12.7 -11.1
03 15.10 ЮЗ 27 200 м сильная метель 4/4 150 м
[St]
-11.4 -12.8 89 -27 -27 963.3 938.6
06 15.10 ЮЗ 26 100 м сильная метель 5/5 150 м
[St]
-11.3 -12.7 89 -27 -27 966.8 942.2
09 15.10 ЮЗ 24 100 м туман {метель} 9/9 120 м
[St]
-11.5 -12.9 89 -27 -27 971.0 946.2
12 15.10 Ю 23 100 м туман {метель} 6/6 120 м
[St]
-11.7 -13.1 89 -27 -27 974.5 949.7 -12.1 -11.2
15 15.10 Ю 22 300 м туман {метель} 8/8 120 м
[St]
-11.2 -12.6 89 -26 -26 977.6 952.6
18 15.10 Ю 21 2000 м сильный позёмок {туман, метель} 9/4 150 м
[St Cs]
-11.0 -12.3 90 -25 -25 980.7 955.8
21 15.10 ЮЗ 17 5000 м сильный позёмок {метель} 6/6 210 м
[St]
-11.7 -13.1 89 -25 -25 984.4 959.3
00 16.10 Ю 18 400 м туман {метель} 9/9 120 м
[St]
-13.3 -14.9 88 -28 -28 986.0 960.8 -13.4 -10.6
03 16.10 Ю 14 400 м туман {метель} 10/10 150 м
[St]
-13.5 -15.1 88 -27 -27 988.2 962.9
06 16.10 Ю 13 400 м туман {метель} 8/3 120 м
[St Ac As]
-13.9 -15.5 88 -27 -27 989.6 964.2
09 16.10 Ю 10 15 км {туман} 8/3 150 м
[St Cs]
-14.1 -15.8 87 -26 -26 991.2 965.8
12 16.10 Ю 9 15 км {туман} 8/0
[Ac As Cs]
-12.0 -13.4 89 -22 -22 991.6 966.2 -14.6 -11.8
15 16.10 Ю 7 15 км 10/4 150 м
[St Ac As]
-11.8 -13.2 89 -21 -21 991.7 966.2
18 16.10 Ю 5 9000 м слабый снег 10/6 180 м
[Frnb As op]
-11.9 -13.3 89 -20 -20 991.2 965.8
21 16.10 Ю 6 10 км слабый снег 9/6 210 м
[St Ac As]
-12.1 -13.6 89 -21 -21 990.5 965.0
00 17.10 Ю 9 1000 м снег 10/10 120 м
[Frnb]
-12.5 -14.0 89 -23 -23 988.8 963.4 -13.1 -11.3
03 17.10 Ю 7 1500 м слабый снег 10/10 90 м
[St]
-12.4 -13.9 89 -22 -22 988.4 963.2
06 17.10 Ю 10 2000 м слабый снег 10/10 90 м
[St]
-13.3 -14.9 88 -25 -25 987.3 962.0
09 17.10 Ю 11 500 м слабый снег {туман} 10/10 90 м
[St]
-14.6 -16.3 87 -27 -27 987.9 962.6
12 17.10 Ю 9 500 м снег {туман} 10/10 90 м
[St]
-14.1 -15.8 87 -25 -25 989.1 963.7 -14.6 -12.4
15 17.10 Ю 10 500 м снег {туман} 10/10 90 м
[St]
-13.4 -15.0 88 -25 -25 989.4 964.1
18 17.10 Ю 11 800 м туман {снег} 10/6 150 м
[St Ac As]
-13.6 -15.2 88 -26 -26 990.1 964.6
21 17.10 Ю 11 1500 м позёмок {метель} 10/5 150 м
[St As op]
-14.6 -16.3 87 -27 -27 990.9 965.4
00 18.10 Ю 12 200 м слабый снег {туман} 10/8 180 м
[St As op]
-15.2 -17.0 86 -28 -28 991.2 965.6 -15.6 -12.8
03 18.10 Ю 15 100 м слабый снег {туман} 10/3 150 м
[St As op]
-15.4 -17.2 86 -30 -30 991.4 965.8
06 18.10 Ю 16 100 м слабый снег {туман} 10/10 60 м
[Frnb]
-15.5 -17.3 86 -30 -30 992.0 966.4
09 18.10 Ю 18 100 м слабый снег {туман} 10/10 60 м
[Frnb]
-15.5 -17.3 86 -31 -31 опасность
обморожения
992.5 966.9
12 18.10 ЮЗ 19 100 м слабый снег {туман} 10/10 60 м
[St]
-14.3 -16.0 87 -29 -29 993.1 967.4 -16.1 -14.1
15 18.10 ЮЗ 18 200 м туман {снег} 10/4 150 м
[St As op]
-14.1 -15.8 87 -29 -29 993.9 968.2
18 18.10 ЮЗ 16 200 м туман {снег} 10/4 150 м
[St Ac As]
-13.7 -15.3 88 -28 -28 994.8 969.2
21 18.10 ЮЗ 17 300 м туман {метель} 10/0
[Ac As]
-14.3 -16.0 87 -29 -29 996.2 970.5
00 19.10 Ю 18 300 м туман {метель} 8/0
[Ac As]
-15.1 -16.9 86 -30 -30 997.2 971.4 -15.1 -13.7
03 19.10 Ю 16 100 м туман {метель} 10/4 120 м
[St Ac As]
-15.9 -17.7 86 -31 -31 опасность
обморожения
998.5 972.6
06 19.10 Ю 17 100 м туман {метель} 10/3 100 м
[St Ac As]
-16.3 -18.2 85 -31 -31 опасность
обморожения
998.1 972.2
09 19.10 Ю 17 500 м туман {метель} 10/1 180 м
[St Ac As]
-16.5 -18.4 85 -32 -32 опасность
обморожения
999.0 973.2
12 19.10 Ю 17 1000 м сильный позёмок {туман, метель} 10/3 120 м
[St Ac As]
-16.0 -17.9 85 -31 -31 опасность
обморожения
999.6 973.7 -16.9 -15.1
15 19.10 Ю 18 500 м сильная метель 10/4 120 м
[St Ac As]
-15.0 -16.8 86 -30 -30 999.8 973.8
18 19.10 Ю 15 600 м сильная метель 10/4 240 м
[St As op]
-14.6 -16.3 87 -29 -29 1000.1 974.2
21 19.10 Ю 15 800 м сильная метель 8/4 240 м
[St Ac As Cs]
-14.8 -16.5 87 -29 -29 1000.7 974.8
00 20.10 Ю 11 9000 м позёмок {метель} 6/0
[Ac cuf Cs]
-15.7 -17.5 86 -29 -29 1001.7 975.8 -16.3 -14.4
03 20.10 Ю 11 9000 м позёмок {метель} ясно -15.6 -17.4 86 -28 -28 1001.7 975.8
06 20.10 Ю 7 15 км {метель} ясно -15.9 -17.7 86 -26 -26 1001.7 975.8
09 20.10 Ю 3 5000 м дымка 6/6 120 м
[St]
-15.2 -17.0 86 -22 -22 1002.2 976.2
12 20.10 С 3 10 км дымка {туман} 9/9 150 м
[St]
-11.5 -12.9 89 -18 -17 1002.0 976.2 -16.5 -11.3
15 20.10 С 7 15 км 5/4 300 м
[St Ac As]
-9.1 -10.2 92 -18 -17 1000.7 975.0
18 20.10 С 9 15 км 6/6 300 м
[St]
-8.3 -9.3 92 -18 -18 999.6 974.1
21 20.10 С 9 15 км 9/9 300 м
[St]
-6.7 -7.5 94 -16 -16 998.9 973.4

 

Местоположение метеостанции Base Marambio (Антарктида): широта -64.23 долгота -56.71 высота над уровнем моря 198 м.

В архиве по умолчанию представлена погода в Base Marambio за последнюю неделю. Архивные данные за месяц целиком и за предыдущие месяцы, начиная с января 2011 года, Вы можете получить, выбрав интересующий диапазон дат из раскрывающегося списка и нажав кнопку "Ввод!".

Внимание! Время в таблицах - всемирное. Для получения местного времени необходимо прибавить поправку, которая в Base Marambio равна 0 ч.

Смотрите также архив погоды в соседних городах и на ближайших метеорологических станциях:

Погода в Base Esperanza (Антарктида) (93 км)
Погода в Bernardo o`Higgins (Антарктида) (118 км)
Погода в Base Jubany (Антарктида) (242 км)
Погода в Base Arturo Prat (Антарктида) (243 км)
Погода в King Sejong (Антарктида) (247 км)
Погода в Great Wall (Антарктида) (251 км)
Погода в Dinamet-Uruguay (Антарктида) (252 км)
Погода в Bellingshausen (Антарктида) (252 км)
Погода в Juan Carlos I (Антарктида) (253 км)
Погода в Frei Chi-Base (Антарктида) (255 км)

Пояснения к столбцам:

Ветер - указаны скорость ветра в м/с - средняя за 10 мин, порывы в срок и между сроками (в фигурных скобках) и направление, откуда дует ветер: С - северный, СВ - северо-восточный, В - восточный, ЮВ - юго-восточный, Ю - южный, ЮЗ - юго-западный, З - западный, СЗ - северо-западный.
Видимость - горизонтальная дальность видимости в метрах или километрах. При видимости от 1 до 10 км при отсутствии осадков обычно наблюдается дымка, при ухудшении видимости до 1 км и менее - туман. В сухую погоду видимость может ухудшаться дымом, пылью или мглою.
Явления - указаны атмосферные явления, наблюдавшиеся в срок или в последний час перед сроком; фигурными скобками обозначены явления, наблюдавшиеся между сроками (за 1-3 часа до срока); квадратными скобками обозначены град или гололедные отложения с указанием их диаметра в мм.
Облачность - указаны через наклонную черту общая и нижняя облачность в баллах и высота нижней границы облаков в метрах; квадратными скобками обозначены формы облаков: Ci - перистые, Cs - перисто-слоистые, Cc - перисто-кучевые, Ac - высококучевые, As - высокослоистые, Sc - слоисто-кучевые, Ns - слоисто-дождевые, Cu - кучевые, Cb - кучево-дождевые. Подробнее классификацию облаков см. в Атласе облаков (PDF).
T - Температура воздуха - температура, измеренная на высоте 2 м над землей.
Td - Температура точки росы - температура, при понижении до которой содержащийся в воздухе водяной пар достигнет насыщения.
f - Относительная влажность воздуха - влажноcть воздуха, измеренная на высоте 2 м над землей.
Te - Эффективная температура - температура, которую ощущает одетый по сезону человек в тени. Характеристика душности погоды. При расчете учитывается влияние влажности воздуха и скорости ветра на теплоощущения человека.
Tes - Эффективная температура на солнце - температура, которую ощущает человек, с поправкой на солнечный нагрев. Характеристика знойности погоды. Зависит от высоты солнца над горизонтом, облачности и скорости ветра. Ночью, в пасмурную погоду, а также при ветре 12 м/с и более поправка равна нулю.
P - Атмосферное давление - приведенное к уровню моря атмосферное давление.
Po - Атмосферное давление - измеренное на уровне метеостанции атмосферное давление.
Tmin - Минимальная температура - минимум температуры воздуха на высоте 2 м над землей.
Tmax - Максимальная температура - максимум температуры воздуха на высоте 2 м над землей.
R - Количество осадков - Количество выпавших осадков за период времени, мм. При наведении курсора мыши на число - период времени, за который выпало указанное количество осадков.
R24 - Количество осадков - Количество выпавших осадков за 24 часа, мм.
S - Снежный покров - Высота снежного покрова, см. При наведении курсора мыши на число - состояние снежного покрова и степень покрытия местности в баллах.